Observations

BIA Manual Entry


Date Temp Humidity Rainfall Dew Point Wind Direction Wind Speed Wind Pressure Condition Visibility
2025-05-29 09:59:36 29 70 23 160 7.6 1011 Partly Cloudy (Day) 20KM
2025-05-29 09:00:08 28 76 23 160 9.5 1011 Partly Cloudy (Day) 20KM
2025-05-29 08:03:07 25 89 0.00 23 150 7.6 1011 Partly Cloudy (Day) 20KM
2025-05-29 07:01:51 24 95 0.00 23 150 3.8 1011 Partly Cloudy (Day) 10KM
2025-05-29 05:59:41 24 96 0.00 23 180 5.7 1011 Partly Cloudy (Day) 10
2025-05-29 05:00:35 24 96 0.00 23 160 5.7 1010 Partly Cloudy (Night) 10KM
2025-05-29 04:01:29 24 97 0.00 23 150 5.7 1011 Rain 10KM
2025-05-29 03:00:56 23 98 0.00 23 160 5.7 1011 Partly Cloudy (Day) 10KM
2025-05-29 02:06:08 24 99 1.0 MM 23 160 7.6 1012 Rain 08 KM
2025-05-29 01:01:55 23 99 1.0 MM 23 170 7.6 1012 Rain 06 KM
2025-05-29 00:03:22 24 98 1.0 MM 23 180 15.2 1013 Rain 05 KM
2025-05-28 23:04:10 24 99 5.0 MM 24 100 3.8 1013 Thundershowers 05 KM
2025-05-28 22:05:20 24 99 20.0 MM 24 130 7.6 1012 Thundershowers 1.5 KM
2025-05-28 21:01:20 25 95 24 050 26.6 1011 Night Thunderstorm 7 KM
2025-05-28 20:01:17 27 95 26 140 13.3 1010 Night Thunderstorm 9 KM
2025-05-28 19:00:10 29 85 26 240 5.7 1009 Night Thunderstorm 10 KM
2025-05-28 17:58:35 29 81 25 280 11.4 1007 Distant showers 15 KM
2025-05-28 17:06:32 30 75 25 240 26.6 1007 Distant showers 10 KM
2025-05-28 16:01:15 29 84 26 290 13.3 1007 Showers 9 KM
2025-05-28 14:58:41 33 62 24 270 19.0 1007 Partly Cloudy (Day) 10 KM
2025-05-28 14:03:50 34 55 23 220 15.2 1007 Partly Cloudy (Day) 20 KM
2025-05-28 13:00:26 33 58 0.0 23 220 11.1 1008 Partly Cloudy (Day) 20 km
2025-05-28 11:59:57 32 60 0.0 23 230 9.5 1009 Partly Cloudy (Day) 20 km
2025-05-28 11:03:03 31 62 0.0 23 180 7.6 1010 Partly Cloudy (Day) 20 km
2025-05-28 10:02:07 30 68 0.0 24 170 13.3 1009 Partly Cloudy (Day) 20 KM